Tracking 22881 objects as of 19-Apr-2021
HD Live streaming from Space Station
objects crossing your sky now

MSG 4 DEB (BAFFLE COVER)

Track MSG 4 DEB (BAFFLE COVER) now!


NORAD ID: 40990
Int'l Code: 2015-034F
Perigee: 34,817.0 km
Apogee: 35,460.6 km
Inclination: 2.4 °
Period: 1,402.8 minutes
Semi major axis: 41509 km
RCS: Unknown
Launch date: July 15, 2015
Source: European Organisation for the Exploitation of Meteorological Satellites (EUME)
Launch site: FRENCH GUIANA (FRGUI)

Note: This is SATELLITE DEBRIS
aabbcc
Your satellite tracking list
Your tracking list is empty




NASA's NSSDC Master Catalog

Two Line Element Set (TLE):
1 40990U 15034F   21106.95058942 -.00000103  00000-0  00000-0 0  9992
2 40990   2.3906 122.0322 0077528 125.4355 235.7530  1.02654350 21521
Source of the keplerian elements: AFSPC